Location: Unspecified
(51.0000°N, 12.0000°E)
Time: 00:12:01
(UTC+01:00)

XW-2F - Visible Passes

Search period start: 13 November 2018 00:00
Search period end: 23 November 2018 00:00
Orbit: 506 x 524 km, 97.5° (Epoch: 12 November)

Date Brightness Start Highest point End Pass type
(mag) Time Alt. Az. Time Alt. Az. Time Alt. Az.
13 Nov ? 06:05:08 10° NNE 06:08:47 44° E 06:12:23 10° S visible
13 Nov ? 18:24:58 10° SW 18:27:47 19° W 18:30:36 10° NW visible
14 Nov ? 05:50:22 10° NNE 05:53:46 30° E 05:57:07 10° SSE visible
14 Nov ? 18:09:27 10° SSW 18:12:43 27° W 18:16:02 10° NW visible
15 Nov ? 05:35:44 10° NE 05:38:43 22° E 05:41:40 10° SE visible
15 Nov ? 17:54:08 10° SSW 17:57:42 38° W 18:01:18 10° NNW visible
16 Nov ? 05:21:18 10° NE 05:23:38 16° E 05:25:57 10° SE visible
16 Nov ? 17:38:57 10° S 17:42:42 55° W 17:46:29 10° NNW visible
17 Nov ? 05:07:27 10° ENE 05:08:31 11° E 05:09:34 10° ESE visible
17 Nov ? 06:39:18 10° N 06:43:06 78° WNW 06:46:51 10° SSW visible
17 Nov ? 17:23:55 10° S 17:27:44 81° WSW 17:31:35 10° NNW visible
18 Nov ? 06:24:22 10° NNE 06:28:09 72° ESE 06:31:53 10° S visible
18 Nov ? 17:09:00 10° SSE 17:12:48 70° ENE 17:16:37 10° N visible
18 Nov ? 18:45:38 10° WSW 18:47:19 12° W 18:48:59 10° WNW visible
19 Nov ? 06:09:29 10° NNE 06:13:10 49° E 06:16:48 10° S visible
19 Nov ? 16:54:12 10° SE 16:57:52 48° ENE 17:01:35 10° N visible
19 Nov ? 18:29:36 10° SW 18:32:12 17° W 18:34:49 10° NW visible
20 Nov ? 05:54:41 10° NNE 05:58:09 33° E 06:01:34 10° SSE visible
20 Nov ? 18:13:59 10° SSW 18:17:07 24° W 18:20:17 10° NW visible
21 Nov ? 05:40:00 10° NE 05:43:06 24° E 05:46:09 10° SSE visible
21 Nov ? 17:58:35 10° SSW 18:02:04 34° W 18:05:35 10° NNW visible
22 Nov ? 05:25:28 10° NE 05:28:00 17° E 05:30:31 10° SE visible
22 Nov ? 06:58:41 10° N 07:02:20 47° WNW 07:05:55 10° SW visible
22 Nov ? 17:43:21 10° S 17:47:03 49° W 17:50:46 10° NNW visible
